Time,TemperatureF,DewpointF,PressureIn,WindDirection,WindDirectionDegrees,WindSpeedMPH,WindSpeedGustMPH,Humidity,HourlyPrecipIn,Conditions,Clouds,dailyrainin,SolarRadiationWatts/m^2,SoftwareType,DateUTC
2013-09-13 00:01:00,73.2,60.5,29.82,WNW,296,0.0,0.0,64,0.00,,,0.00,0.0,WUHU216DAVISVP2,2013-09-13 07:01:00,
2013-09-13 00:06:00,72.9,60.2,29.82,WNW,296,0.0,0.0,64,0.00,,,0.00,0.0,WUHU216DAVISVP2,2013-09-13 07:06:00,
2013-09-13 00:11:00,72.7,60.5,29.82,WNW,296,0.0,0.0,65,0.00,,,0.00,0.0,WUHU216DAVISVP2,2013-09-13 07:11:00,
2013-09-13 00:16:00,72.4,60.6,29.82,WNW,296,0.0,0.0,66,0.00,,,0.00,0.0,WUHU216DAVISVP2,2013-09-13 07:16:00,
2013-09-13 00:21:00,72.0,60.6,29.81,WNW,296,0.0,0.0,67,0.00,,,0.00,0.0,WUHU216DAVISVP2,2013-09-13 07:21:00,
2013-09-13 00:26:00,71.7,60.4,29.82,WNW,296,0.0,0.0,67,0.00,,,0.00,0.0,WUHU216DAVISVP2,2013-09-13 07:26:00,
2013-09-13 00:31:00,71.4,60.1,29.82,WNW,296,0.0,0.0,67,0.00,,,0.00,0.0,WUHU216DAVISVP2,2013-09-13 07:31:00,
2013-09-13 00:36:00,71.3,60.0,29.82,WNW,296,0.0,0.0,67,0.00,,,0.00,0.0,WUHU216DAVISVP2,2013-09-13 07:36:00,
2013-09-13 00:41:00,71.2,59.9,29.81,WNW,296,0.0,0.0,67,0.00,,,0.00,0.0,WUHU216DAVISVP2,2013-09-13 07:41:00,
2013-09-13 00:46:00,71.1,60.2,29.82,WNW,296,0.0,0.0,68,0.00,,,0.00,0.0,WUHU216DAVISVP2,2013-09-13 07:46:00,
2013-09-13 00:51:00,71.0,60.5,29.81,WNW,296,0.0,0.0,69,0.00,,,0.00,0.0,WUHU216DAVISVP2,2013-09-13 07:51:00,
2013-09-13 00:56:00,70.8,60.1,29.81,WNW,296,0.0,0.0,69,0.00,,,0.00,0.0,WUHU216DAVISVP2,2013-09-13 07:56:00,
2013-09-13 01:01:00,70.6,60.5,29.81,WNW,296,0.0,0.0,70,0.00,,,0.00,0.0,WUHU216DAVISVP2,2013-09-13 08:01:00,
2013-09-13 01:06:00,70.5,60.4,29.81,WNW,296,0.0,0.0,70,0.00,,,0.00,0.0,WUHU216DAVISVP2,2013-09-13 08:06:00,
2013-09-13 01:11:00,70.3,60.6,29.81,WNW,296,0.0,0.0,71,0.00,,,0.00,0.0,WUHU216DAVISVP2,2013-09-13 08:11:00,
2013-09-13 01:16:00,70.2,60.5,29.81,WNW,296,0.0,0.0,71,0.00,,,0.00,0.0,WUHU216DAVISVP2,2013-09-13 08:16:00,
2013-09-13 01:21:00,70.2,60.5,29.81,WNW,296,0.0,0.0,71,0.00,,,0.00,0.0,WUHU216DAVISVP2,2013-09-13 08:21:00,
2013-09-13 01:26:00,70.2,60.4,29.81,WNW,296,0.0,0.0,71,0.00,,,0.00,0.0,WUHU216DAVISVP2,2013-09-13 08:26:00,
2013-09-13 01:31:00,70.2,60.4,29.81,WNW,296,0.0,0.0,71,0.00,,,0.00,0.0,WUHU216DAVISVP2,2013-09-13 08:31:00,
2013-09-13 01:36:00,70.3,60.6,29.81,WNW,296,0.0,0.0,71,0.00,,,0.00,0.0,WUHU216DAVISVP2,2013-09-13 08:36:00,
2013-09-13 01:41:00,70.4,60.7,29.81,WNW,296,0.0,0.0,71,0.00,,,0.00,0.0,WUHU216DAVISVP2,2013-09-13 08:41:00,
2013-09-13 01:46:00,70.4,60.7,29.81,WNW,296,0.0,0.0,71,0.00,,,0.00,0.0,WUHU216DAVISVP2,2013-09-13 08:46:00,
2013-09-13 01:51:00,70.3,60.6,29.81,WNW,296,0.0,0.0,71,0.00,,,0.00,0.0,WUHU216DAVISVP2,2013-09-13 08:51:00,
2013-09-13 01:56:00,70.0,60.7,29.81,WNW,296,0.0,0.0,72,0.00,,,0.00,0.0,WUHU216DAVISVP2,2013-09-13 08:56:00,
2013-09-13 02:01:00,69.9,60.6,29.81,WNW,296,0.0,0.0,72,0.00,,,0.00,0.0,WUHU216DAVISVP2,2013-09-13 09:01:00,
2013-09-13 02:06:00,69.9,60.6,29.81,WNW,296,0.0,0.0,72,0.00,,,0.00,0.0,WUHU216DAVISVP2,2013-09-13 09:06:00,
2013-09-13 02:11:00,69.9,60.6,29.81,WNW,296,0.0,0.0,72,0.00,,,0.00,0.0,WUHU216DAVISVP2,2013-09-13 09:11:00,
2013-09-13 02:16:00,69.7,60.0,29.81,WNW,296,0.0,0.0,71,0.00,,,0.00,0.0,WUHU216DAVISVP2,2013-09-13 09:16:00,
2013-09-13 02:21:00,69.6,60.3,29.81,WNW,296,0.0,0.0,72,0.00,,,0.00,0.0,WUHU216DAVISVP2,2013-09-13 09:21:00,
2013-09-13 02:26:00,69.5,60.1,29.81,WNW,296,0.0,0.0,72,0.00,,,0.00,0.0,WUHU216DAVISVP2,2013-09-13 09:26:00,
2013-09-13 02:31:00,69.3,60.3,29.81,WNW,296,0.0,0.0,73,0.00,,,0.00,0.0,WUHU216DAVISVP2,2013-09-13 09:31:00,
2013-09-13 02:36:00,69.0,60.4,29.81,WNW,296,0.0,0.0,74,0.00,,,0.00,0.0,WUHU216DAVISVP2,2013-09-13 09:36:00,
2013-09-13 02:41:00,68.9,60.6,29.81,WNW,296,0.0,0.0,75,0.00,,,0.00,0.0,WUHU216DAVISVP2,2013-09-13 09:41:00,
2013-09-13 02:46:00,69.0,60.5,29.81,WNW,296,0.0,0.0,74,0.00,,,0.00,0.0,WUHU216DAVISVP2,2013-09-13 09:46:00,
2013-09-13 02:51:00,69.1,60.1,29.81,WNW,296,0.0,0.0,73,0.00,,,0.00,0.0,WUHU216DAVISVP2,2013-09-13 09:51:00,
2013-09-13 02:56:00,69.2,60.2,29.81,WNW,296,1.0,1.0,73,0.00,,,0.00,0.0,WUHU216DAVISVP2,2013-09-13 09:56:00,
2013-09-13 03:01:00,69.3,60.3,29.80,WNW,296,0.0,1.0,73,0.00,,,0.00,0.0,WUHU216DAVISVP2,2013-09-13 10:01:00,
2013-09-13 03:06:00,69.4,60.4,29.80,WNW,296,0.0,1.0,73,0.00,,,0.00,0.0,WUHU216DAVISVP2,2013-09-13 10:06:00,
2013-09-13 03:11:00,69.4,60.4,29.80,WNW,296,0.0,1.0,73,0.00,,,0.00,0.0,WUHU216DAVISVP2,2013-09-13 10:11:00,
2013-09-13 03:16:00,69.4,60.5,29.80,WNW,296,0.0,1.0,73,0.00,,,0.00,0.0,WUHU216DAVISVP2,2013-09-13 10:16:00,
2013-09-13 03:21:00,69.5,60.6,29.80,WNW,296,0.0,1.0,73,0.00,,,0.00,0.0,WUHU216DAVISVP2,2013-09-13 10:21:00,
2013-09-13 03:26:00,69.4,60.5,29.80,WNW,296,0.0,1.0,73,0.00,,,0.00,0.0,WUHU216DAVISVP2,2013-09-13 10:26:00,
2013-09-13 03:31:00,69.4,60.5,29.80,WNW,296,0.0,1.0,73,0.00,,,0.00,0.0,WUHU216DAVISVP2,2013-09-13 10:31:00,
2013-09-13 03:36:00,69.4,60.5,29.80,WNW,296,0.0,1.0,73,0.00,,,0.00,0.0,WUHU216DAVISVP2,2013-09-13 10:36:00,
2013-09-13 03:41:00,69.4,60.4,29.80,WNW,296,0.0,1.0,73,0.00,,,0.00,0.0,WUHU216DAVISVP2,2013-09-13 10:41:00,
2013-09-13 03:46:00,69.3,60.3,29.80,WNW,296,0.0,1.0,73,0.00,,,0.00,0.0,WUHU216DAVISVP2,2013-09-13 10:46:00,
2013-09-13 03:51:00,69.2,60.3,29.80,WNW,296,0.0,0.0,73,0.00,,,0.00,0.0,WUHU216DAVISVP2,2013-09-13 10:51:00,
2013-09-13 03:56:00,69.3,60.4,29.79,WNW,296,0.0,0.0,73,0.00,,,0.00,0.0,WUHU216DAVISVP2,2013-09-13 10:56:00,
2013-09-13 04:01:00,69.3,60.3,29.79,WNW,296,0.0,0.0,73,0.00,,,0.00,0.0,WUHU216DAVISVP2,2013-09-13 11:01:00,
2013-09-13 04:06:00,69.2,60.2,29.79,WNW,296,0.0,0.0,73,0.00,,,0.00,0.0,WUHU216DAVISVP2,2013-09-13 11:06:00,
2013-09-13 04:11:00,69.1,60.1,29.80,WNW,296,0.0,0.0,73,0.00,,,0.00,0.0,WUHU216DAVISVP2,2013-09-13 11:11:00,
2013-09-13 04:16:00,69.0,60.4,29.80,WNW,296,0.0,0.0,74,0.00,,,0.00,0.0,WUHU216DAVISVP2,2013-09-13 11:16:00,
2013-09-13 04:21:00,68.5,59.9,29.80,WNW,296,0.0,2.0,74,0.00,,,0.00,0.0,WUHU216DAVISVP2,2013-09-13 11:21:00,
2013-09-13 04:26:00,67.8,60.0,29.80,WNW,296,0.0,2.0,76,0.00,,,0.00,0.0,WUHU216DAVISVP2,2013-09-13 11:26:00,
2013-09-13 04:31:00,67.3,59.8,29.80,WNW,296,0.0,2.0,77,0.00,,,0.00,0.0,WUHU216DAVISVP2,2013-09-13 11:31:00,
2013-09-13 04:36:00,66.9,59.9,29.80,WNW,296,0.0,2.0,78,0.00,,,0.00,0.0,WUHU216DAVISVP2,2013-09-13 11:36:00,
2013-09-13 04:41:00,66.5,59.9,29.80,WNW,296,0.0,2.0,79,0.00,,,0.00,0.0,WUHU216DAVISVP2,2013-09-13 11:41:00,
2013-09-13 04:46:00,66.2,59.9,29.80,WNW,296,1.0,2.0,80,0.00,,,0.00,0.0,WUHU216DAVISVP2,2013-09-13 11:46:00,
2013-09-13 04:51:00,65.8,59.9,29.80,WNW,296,0.0,2.0,81,0.00,,,0.00,0.0,WUHU216DAVISVP2,2013-09-13 11:51:00,
2013-09-13 04:56:00,65.6,60.0,29.80,WNW,296,0.0,2.0,82,0.00,,,0.00,0.0,WUHU216DAVISVP2,2013-09-13 11:56:00,
2013-09-13 05:01:00,65.5,59.9,29.80,WNW,296,0.0,1.0,82,0.00,,,0.00,0.0,WUHU216DAVISVP2,2013-09-13 12:01:00,
2013-09-13 05:06:00,65.6,60.0,29.80,WNW,296,0.0,0.0,82,0.00,,,0.00,0.0,WUHU216DAVISVP2,2013-09-13 12:06:00,
2013-09-13 05:11:00,65.7,60.1,29.80,WNW,296,0.0,0.0,82,0.00,,,0.00,0.0,WUHU216DAVISVP2,2013-09-13 12:11:00,
2013-09-13 05:16:00,65.8,60.2,29.80,WNW,296,0.0,0.0,82,0.00,,,0.00,0.0,WUHU216DAVISVP2,2013-09-13 12:16:00,
2013-09-13 05:21:00,66.0,60.1,29.80,WNW,296,0.0,0.0,81,0.00,,,0.00,0.0,WUHU216DAVISVP2,2013-09-13 12:21:00,
2013-09-13 05:26:00,66.1,60.2,29.80,WNW,296,0.0,0.0,81,0.00,,,0.00,0.0,WUHU216DAVISVP2,2013-09-13 12:26:00,
2013-09-13 05:31:00,66.3,59.9,29.80,WNW,296,0.0,0.0,80,0.00,,,0.00,0.0,WUHU216DAVISVP2,2013-09-13 12:31:00,
2013-09-13 05:36:00,66.5,60.1,29.80,WNW,296,0.0,0.0,80,0.00,,,0.00,0.0,WUHU216DAVISVP2,2013-09-13 12:36:00,
2013-09-13 05:41:00,66.6,60.2,29.80,WNW,296,0.0,0.0,80,0.00,,,0.00,0.0,WUHU216DAVISVP2,2013-09-13 12:41:00,
2013-09-13 05:46:00,66.6,60.0,29.80,WNW,296,0.0,0.0,79,0.00,,,0.00,0.0,WUHU216DAVISVP2,2013-09-13 12:46:00,
2013-09-13 05:51:00,66.5,59.9,29.79,WNW,296,0.0,0.0,79,0.00,,,0.00,0.0,WUHU216DAVISVP2,2013-09-13 12:51:00,
2013-09-13 05:56:00,66.4,60.1,29.79,WNW,296,0.0,0.0,80,0.00,,,0.00,0.0,WUHU216DAVISVP2,2013-09-13 12:56:00,
2013-09-13 06:01:00,66.5,60.2,29.79,WNW,296,0.0,0.0,80,0.00,,,0.00,0.0,WUHU216DAVISVP2,2013-09-13 13:01:00,
2013-09-13 06:06:00,66.5,59.9,29.80,WNW,296,0.0,0.0,79,0.00,,,0.00,0.0,WUHU216DAVISVP2,2013-09-13 13:06:00,
2013-09-13 06:11:00,66.4,60.1,29.80,WNW,296,0.0,0.0,80,0.00,,,0.00,0.0,WUHU216DAVISVP2,2013-09-13 13:11:00,
2013-09-13 06:16:00,66.4,60.1,29.80,WNW,296,0.0,0.0,80,0.00,,,0.00,0.0,WUHU216DAVISVP2,2013-09-13 13:16:00,
2013-09-13 06:21:00,66.5,60.2,29.80,WNW,296,0.0,0.0,80,0.00,,,0.00,0.0,WUHU216DAVISVP2,2013-09-13 13:21:00,
2013-09-13 06:26:00,66.5,60.2,29.80,WNW,296,0.0,0.0,80,0.00,,,0.00,0.0,WUHU216DAVISVP2,2013-09-13 13:26:00,
2013-09-13 06:31:00,66.5,60.2,29.80,WNW,296,0.0,0.0,80,0.00,,,0.00,0.0,WUHU216DAVISVP2,2013-09-13 13:31:00,
2013-09-13 06:36:00,66.4,60.1,29.80,WNW,296,0.0,0.0,80,0.00,,,0.00,0.0,WUHU216DAVISVP2,2013-09-13 13:36:00,
2013-09-13 06:41:00,66.3,60.0,29.80,WNW,296,0.0,0.0,80,0.00,,,0.00,0.0,WUHU216DAVISVP2,2013-09-13 13:41:00,
2013-09-13 06:46:00,66.2,60.3,29.80,WNW,296,0.0,0.0,81,0.00,,,0.00,5.0,WUHU216DAVISVP2,2013-09-13 13:46:00,
2013-09-13 06:51:00,66.2,60.3,29.81,WNW,296,0.0,0.0,81,0.00,,,0.00,9.0,WUHU216DAVISVP2,2013-09-13 13:51:00,
2013-09-13 06:56:00,66.2,59.9,29.81,WNW,296,0.0,0.0,80,0.00,,,0.00,12.0,WUHU216DAVISVP2,2013-09-13 13:56:00,
2013-09-13 07:01:00,66.2,59.8,29.81,WNW,296,0.0,0.0,80,0.00,,,0.00,18.0,WUHU216DAVISVP2,2013-09-13 14:01:00,
2013-09-13 07:06:00,66.3,59.9,29.81,WNW,296,0.0,0.0,80,0.00,,,0.00,23.0,WUHU216DAVISVP2,2013-09-13 14:06:00,
2013-09-13 07:11:00,66.5,60.1,29.81,WNW,296,0.0,0.0,80,0.00,,,0.00,30.0,WUHU216DAVISVP2,2013-09-13 14:11:00,
2013-09-13 07:16:00,66.7,60.3,29.81,WNW,296,0.0,0.0,80,0.00,,,0.00,40.0,WUHU216DAVISVP2,2013-09-13 14:16:00,
2013-09-13 07:21:00,66.9,60.2,29.81,WNW,296,0.0,0.0,79,0.00,,,0.00,51.0,WUHU216DAVISVP2,2013-09-13 14:21:00,
2013-09-13 07:26:00,67.2,60.5,29.81,WNW,296,0.0,0.0,79,0.00,,,0.00,62.0,WUHU216DAVISVP2,2013-09-13 14:26:00,
2013-09-13 07:31:00,67.6,60.5,29.81,WNW,296,0.0,0.0,78,0.00,,,0.00,74.0,WUHU216DAVISVP2,2013-09-13 14:31:00,
2013-09-13 07:36:00,67.8,60.7,29.81,WNW,296,0.0,0.0,78,0.00,,,0.00,88.0,WUHU216DAVISVP2,2013-09-13 14:36:00,
2013-09-13 07:41:00,68.1,60.6,29.81,WNW,296,3.0,3.0,77,0.00,,,0.00,104.0,WUHU216DAVISVP2,2013-09-13 14:41:00,
2013-09-13 07:46:00,68.3,60.8,29.81,WNW,296,0.0,3.0,77,0.00,,,0.00,121.0,WUHU216DAVISVP2,2013-09-13 14:46:00,
2013-09-13 07:51:00,68.6,60.4,29.81,WNW,296,2.0,4.0,75,0.00,,,0.00,137.0,WUHU216DAVISVP2,2013-09-13 14:51:00,
2013-09-13 07:56:00,68.9,60.3,29.81,WNW,296,4.0,4.0,74,0.00,,,0.00,149.0,WUHU216DAVISVP2,2013-09-13 14:56:00,
2013-09-13 08:01:00,69.1,60.1,29.81,WNW,296,2.0,4.0,73,0.00,,,0.00,163.0,WUHU216DAVISVP2,2013-09-13 15:01:00,
2013-09-13 08:06:00,69.3,60.3,29.81,WNW,296,2.0,4.0,73,0.00,,,0.00,176.0,WUHU216DAVISVP2,2013-09-13 15:06:00,
2013-09-13 08:11:00,69.6,60.6,29.81,WNW,296,0.0,4.0,73,0.00,,,0.00,190.0,WUHU216DAVISVP2,2013-09-13 15:11:00,
2013-09-13 08:16:00,69.8,60.4,29.81,WNW,296,1.0,4.0,72,0.00,,,0.00,206.0,WUHU216DAVISVP2,2013-09-13 15:16:00,
2013-09-13 08:21:00,70.1,60.3,29.81,WNW,296,1.0,3.0,71,0.00,,,0.00,223.0,WUHU216DAVISVP2,2013-09-13 15:21:00,
2013-09-13 08:26:00,70.3,60.8,29.81,WNW,296,0.0,3.0,72,0.00,,,0.00,239.0,WUHU216DAVISVP2,2013-09-13 15:26:00,
2013-09-13 08:31:00,70.7,60.8,29.81,WNW,296,0.0,3.0,71,0.00,,,0.00,255.0,WUHU216DAVISVP2,2013-09-13 15:31:00,
2013-09-13 08:36:00,71.2,61.1,29.81,WNW,296,0.0,3.0,70,0.00,,,0.00,267.0,WUHU216DAVISVP2,2013-09-13 15:36:00,
2013-09-13 08:41:00,71.6,61.5,29.81,WNW,296,0.0,3.0,70,0.00,,,0.00,281.0,WUHU216DAVISVP2,2013-09-13 15:41:00,
2013-09-13 08:46:00,72.2,61.2,29.81,WNW,296,0.0,3.0,68,0.00,,,0.00,295.0,WUHU216DAVISVP2,2013-09-13 15:46:00,
2013-09-13 08:51:00,72.5,61.5,29.81,WNW,296,2.0,3.0,68,0.00,,,0.00,309.0,WUHU216DAVISVP2,2013-09-13 15:51:00,
2013-09-13 08:56:00,72.6,61.2,29.81,WNW,296,1.0,3.0,67,0.00,,,0.00,325.0,WUHU216DAVISVP2,2013-09-13 15:56:00,
2013-09-13 09:01:00,73.2,61.4,29.81,WNW,296,2.0,3.0,66,0.00,,,0.00,339.0,WUHU216DAVISVP2,2013-09-13 16:01:00,
2013-09-13 09:06:00,73.7,61.4,29.81,WNW,296,0.0,3.0,65,0.00,,,0.00,352.0,WUHU216DAVISVP2,2013-09-13 16:06:00,
2013-09-13 09:11:00,74.4,61.2,29.81,WNW,296,0.0,3.0,63,0.00,,,0.00,367.0,WUHU216DAVISVP2,2013-09-13 16:11:00,
2013-09-13 09:16:00,75.4,62.1,29.81,WNW,296,0.0,3.0,63,0.00,,,0.00,380.0,WUHU216DAVISVP2,2013-09-13 16:16:00,
2013-09-13 09:21:00,76.0,62.3,29.81,WNW,296,0.0,1.0,62,0.00,,,0.00,394.0,WUHU216DAVISVP2,2013-09-13 16:21:00,
2013-09-13 09:26:00,76.4,62.2,29.81,WNW,296,0.0,2.0,61,0.00,,,0.00,410.0,WUHU216DAVISVP2,2013-09-13 16:26:00,
2013-09-13 09:31:00,76.2,61.5,29.81,WNW,296,0.0,2.0,60,0.00,,,0.00,420.0,WUHU216DAVISVP2,2013-09-13 16:31:00,
2013-09-13 09:36:00,76.1,61.7,29.81,WNW,296,0.0,2.0,61,0.00,,,0.00,432.0,WUHU216DAVISVP2,2013-09-13 16:36:00,
2013-09-13 09:41:00,77.0,61.6,29.81,WNW,296,0.0,2.0,59,0.00,,,0.00,445.0,WUHU216DAVISVP2,2013-09-13 16:41:00,
2013-09-13 09:46:00,77.8,61.8,29.81,WNW,296,0.0,2.0,58,0.00,,,0.00,459.0,WUHU216DAVISVP2,2013-09-13 16:46:00,
2013-09-13 09:51:00,78.7,61.7,29.80,WNW,296,1.0,2.0,56,0.00,,,0.00,469.0,WUHU216DAVISVP2,2013-09-13 16:51:00,
2013-09-13 09:56:00,79.2,62.3,29.80,WNW,296,0.0,2.0,56,0.00,,,0.00,483.0,WUHU216DAVISVP2,2013-09-13 16:56:00,
2013-09-13 10:01:00,80.3,62.3,29.80,WNW,296,0.0,2.0,54,0.00,,,0.00,499.0,WUHU216DAVISVP2,2013-09-13 17:01:00,
2013-09-13 10:06:00,80.4,61.9,29.80,WNW,296,1.0,2.0,53,0.00,,,0.00,510.0,WUHU216DAVISVP2,2013-09-13 17:06:00,
2013-09-13 10:11:00,79.8,61.9,29.80,WNW,296,0.0,5.0,54,0.00,,,0.00,522.0,WUHU216DAVISVP2,2013-09-13 17:11:00,
2013-09-13 10:16:00,80.0,62.6,29.80,WNW,296,2.0,5.0,55,0.00,,,0.00,538.0,WUHU216DAVISVP2,2013-09-13 17:16:00,
2013-09-13 10:21:00,80.4,62.4,29.80,WNW,296,2.0,5.0,54,0.00,,,0.00,548.0,WUHU216DAVISVP2,2013-09-13 17:21:00,
2013-09-13 10:26:00,80.5,62.0,29.80,WNW,296,2.0,5.0,53,0.00,,,0.00,563.0,WUHU216DAVISVP2,2013-09-13 17:26:00,
2013-09-13 10:31:00,80.8,62.2,29.80,WNW,296,2.0,5.0,53,0.00,,,0.00,575.0,WUHU216DAVISVP2,2013-09-13 17:31:00,
2013-09-13 10:36:00,81.2,62.1,29.79,WNW,296,1.0,5.0,52,0.00,,,0.00,585.0,WUHU216DAVISVP2,2013-09-13 17:36:00,
2013-09-13 10:41:00,81.9,62.7,29.79,WNW,296,0.0,5.0,52,0.00,,,0.00,592.0,WUHU216DAVISVP2,2013-09-13 17:41:00,
2013-09-13 10:46:00,82.9,62.5,29.79,WNW,295,1.0,5.0,50,0.00,,,0.00,606.0,WUHU216DAVISVP2,2013-09-13 17:46:00,
2013-09-13 10:50:00,82.9,61.9,29.79,WNW,295,0.0,4.0,49,0.00,,,0.00,617.0,WUHU216DAVISVP2,2013-09-13 17:50:00,
2013-09-13 10:55:00,83.0,62.6,29.79,WNW,295,2.0,4.0,50,0.00,,,0.00,626.0,WUHU216DAVISVP2,2013-09-13 17:55:00,
2013-09-13 11:00:00,83.4,62.4,29.78,WNW,295,0.0,4.0,49,0.00,,,0.00,635.0,WUHU216DAVISVP2,2013-09-13 18:00:00,
2013-09-13 11:05:00,83.8,62.6,29.78,WNW,295,0.0,4.0,49,0.00,,,0.00,640.0,WUHU216DAVISVP2,2013-09-13 18:05:00,
2013-09-13 11:10:00,84.2,63.0,29.78,WNW,295,0.0,4.0,49,0.00,,,0.00,645.0,WUHU216DAVISVP2,2013-09-13 18:10:00,
2013-09-13 11:15:00,84.1,61.7,29.78,West,279,1.0,6.0,47,0.00,,,0.00,656.0,WUHU216DAVISVP2,2013-09-13 18:15:00,
2013-09-13 11:20:00,84.5,60.9,29.78,West,263,4.0,6.0,45,0.00,,,0.00,666.0,WUHU216DAVISVP2,2013-09-13 18:20:00,
2013-09-13 11:25:00,84.8,61.1,29.78,West,279,3.0,6.0,45,0.00,,,0.00,680.0,WUHU216DAVISVP2,2013-09-13 18:25:00,
2013-09-13 11:30:00,85.2,60.9,29.77,NW,322,3.0,6.0,44,0.00,,,0.00,684.0,WUHU216DAVISVP2,2013-09-13 18:30:00,
2013-09-13 11:35:00,85.2,61.5,29.77,West,268,3.0,9.0,45,0.00,,,0.00,687.0,WUHU216DAVISVP2,2013-09-13 18:35:00,
2013-09-13 11:40:00,85.2,62.2,29.77,WNW,292,4.0,9.0,46,0.00,,,0.00,694.0,WUHU216DAVISVP2,2013-09-13 18:40:00,
2013-09-13 11:45:00,85.3,61.6,29.77,West,273,3.0,9.0,45,0.00,,,0.00,698.0,WUHU216DAVISVP2,2013-09-13 18:45:00,
2013-09-13 11:50:00,85.6,61.9,29.77,WNW,292,0.0,9.0,45,0.00,,,0.00,710.0,WUHU216DAVISVP2,2013-09-13 18:50:00,
2013-09-13 11:55:00,86.1,61.0,29.76,West,267,0.0,7.0,43,0.00,,,0.00,714.0,WUHU216DAVISVP2,2013-09-13 18:55:00,
2013-09-13 12:00:00,86.3,61.2,29.76,WSW,257,4.0,7.0,43,0.00,,,0.00,721.0,WUHU216DAVISVP2,2013-09-13 19:00:00,
2013-09-13 12:05:00,86.2,61.8,29.76,West,265,5.0,8.0,44,0.00,,,0.00,708.0,WUHU216DAVISVP2,2013-09-13 19:05:00,
2013-09-13 12:10:00,86.3,62.5,29.76,WNW,300,1.0,9.0,45,0.00,,,0.00,710.0,WUHU216DAVISVP2,2013-09-13 19:10:00,
2013-09-13 12:15:00,86.8,63.0,29.76,WNW,296,6.0,9.0,45,0.00,,,0.00,717.0,WUHU216DAVISVP2,2013-09-13 19:15:00,
2013-09-13 12:20:00,86.6,61.5,29.76,West,268,6.0,9.0,43,0.00,,,0.00,731.0,WUHU216DAVISVP2,2013-09-13 19:20:00,
2013-09-13 12:25:00,86.8,60.3,29.76,WNW,287,2.0,9.0,41,0.00,,,0.00,731.0,WUHU216DAVISVP2,2013-09-13 19:25:00,
2013-09-13 12:30:00,87.6,63.0,29.75,NNW,328,4.0,9.0,44,0.00,,,0.00,729.0,WUHU216DAVISVP2,2013-09-13 19:30:00,
2013-09-13 12:35:00,87.8,61.9,29.75,NW,315,3.0,9.0,42,0.00,,,0.00,729.0,WUHU216DAVISVP2,2013-09-13 19:35:00,
2013-09-13 12:40:00,88.2,61.5,29.75,WSW,238,4.0,9.0,41,0.00,,,0.00,733.0,WUHU216DAVISVP2,2013-09-13 19:40:00,
2013-09-13 12:45:00,88.4,61.7,29.75,NNW,333,6.0,9.0,41,0.00,,,0.00,729.0,WUHU216DAVISVP2,2013-09-13 19:45:00,
2013-09-13 12:50:00,88.6,61.2,29.75,West,281,3.0,8.0,40,0.00,,,0.00,721.0,WUHU216DAVISVP2,2013-09-13 19:50:00,
2013-09-13 12:55:00,88.3,60.2,29.75,NW,318,2.0,8.0,39,0.00,,,0.00,733.0,WUHU216DAVISVP2,2013-09-13 19:55:00,
2013-09-13 13:00:00,88.9,60.7,29.74,West,263,0.0,8.0,39,0.00,,,0.00,733.0,WUHU216DAVISVP2,2013-09-13 20:00:00,
2013-09-13 13:05:00,89.5,60.5,29.74,North,360,3.0,9.0,38,0.00,,,0.00,731.0,WUHU216DAVISVP2,2013-09-13 20:05:00,
2013-09-13 13:10:00,89.4,60.4,29.74,NW,310,6.0,9.0,38,0.00,,,0.00,729.0,WUHU216DAVISVP2,2013-09-13 20:10:00,
2013-09-13 13:15:00,89.2,60.2,29.74,NW,308,2.0,9.0,38,0.00,,,0.00,737.0,WUHU216DAVISVP2,2013-09-13 20:15:00,
2013-09-13 13:20:00,89.0,60.1,29.74,WNW,285,7.0,9.0,38,0.00,,,0.00,733.0,WUHU216DAVISVP2,2013-09-13 20:20:00,
2013-09-13 13:25:00,89.0,60.0,29.73,WNW,285,1.0,9.0,38,0.00,,,0.00,733.0,WUHU216DAVISVP2,2013-09-13 20:25:00,
2013-09-13 13:30:00,89.5,58.9,29.73,WNW,292,6.0,9.0,36,0.00,,,0.00,735.0,WUHU216DAVISVP2,2013-09-13 20:30:00,
2013-09-13 13:35:00,90.1,59.5,29.73,WNW,285,0.0,9.0,36,0.00,,,0.00,731.0,WUHU216DAVISVP2,2013-09-13 20:35:00,
2013-09-13 13:40:00,90.1,59.5,29.73,West,273,5.0,8.0,36,0.00,,,0.00,733.0,WUHU216DAVISVP2,2013-09-13 20:40:00,
2013-09-13 13:45:00,90.1,60.3,29.73,WNW,286,7.0,8.0,37,0.00,,,0.00,721.0,WUHU216DAVISVP2,2013-09-13 20:45:00,
2013-09-13 13:50:00,90.4,59.7,29.72,NNW,346,2.0,8.0,36,0.00,,,0.00,721.0,WUHU216DAVISVP2,2013-09-13 20:50:00,
2013-09-13 13:55:00,90.3,59.7,29.72,NW,323,2.0,8.0,36,0.00,,,0.00,719.0,WUHU216DAVISVP2,2013-09-13 20:55:00,
2013-09-13 14:00:00,90.3,59.7,29.72,NW,316,4.0,8.0,36,0.00,,,0.00,710.0,WUHU216DAVISVP2,2013-09-13 21:00:00,
2013-09-13 14:05:00,91.0,60.3,29.71,NNW,328,3.0,8.0,36,0.00,,,0.00,710.0,WUHU216DAVISVP2,2013-09-13 21:05:00,
2013-09-13 14:10:00,91.3,58.9,29.71,NNE,14,3.0,8.0,34,0.00,,,0.00,703.0,WUHU216DAVISVP2,2013-09-13 21:10:00,
2013-09-13 14:15:00,91.5,59.2,29.71,North,5,2.0,8.0,34,0.00,,,0.00,693.0,WUHU216DAVISVP2,2013-09-13 21:15:00,
2013-09-13 14:20:00,92.0,58.7,29.71,NW,320,4.0,6.0,33,0.00,,,0.00,684.0,WUHU216DAVISVP2,2013-09-13 21:20:00,
2013-09-13 14:25:00,91.8,58.5,29.71,West,276,2.0,8.0,33,0.00,,,0.00,677.0,WUHU216DAVISVP2,2013-09-13 21:25:00,
2013-09-13 14:30:00,91.3,57.2,29.70,NNE,22,2.0,8.0,32,0.00,,,0.00,673.0,WUHU216DAVISVP2,2013-09-13 21:30:00,
2013-09-13 14:35:00,91.3,58.1,29.70,NNW,331,3.0,8.0,33,0.00,,,0.00,666.0,WUHU216DAVISVP2,2013-09-13 21:35:00,
2013-09-13 14:40:00,92.1,59.6,29.70,West,278,5.0,8.0,34,0.00,,,0.00,657.0,WUHU216DAVISVP2,2013-09-13 21:40:00,
2013-09-13 14:45:00,91.7,58.4,29.70,WSW,248,5.0,9.0,33,0.00,,,0.00,656.0,WUHU216DAVISVP2,2013-09-13 21:45:00,
2013-09-13 14:50:00,91.6,57.5,29.70,NW,304,4.0,9.0,32,0.00,,,0.00,628.0,WUHU216DAVISVP2,2013-09-13 21:50:00,
2013-09-13 14:55:00,92.0,58.7,29.69,NNW,328,4.0,9.0,33,0.00,,,0.00,626.0,WUHU216DAVISVP2,2013-09-13 21:55:00,
2013-09-13 15:00:00,92.5,58.3,29.69,NW,320,3.0,9.0,32,0.00,,,0.00,626.0,WUHU216DAVISVP2,2013-09-13 22:00:00,
2013-09-13 15:05:00,92.4,56.4,29.69,NW,319,1.0,8.0,30,0.00,,,0.00,613.0,WUHU216DAVISVP2,2013-09-13 22:05:00,
2013-09-13 15:10:00,92.4,56.5,29.69,NNW,342,6.0,12.0,30,0.00,,,0.00,603.0,WUHU216DAVISVP2,2013-09-13 22:10:00,
2013-09-13 15:15:00,92.6,56.5,29.69,NNW,331,5.0,12.0,30,0.00,,,0.00,596.0,WUHU216DAVISVP2,2013-09-13 22:15:00,
2013-09-13 15:20:00,92.8,55.8,29.69,NNW,332,1.0,12.0,29,0.00,,,0.00,584.0,WUHU216DAVISVP2,2013-09-13 22:20:00,
2013-09-13 15:25:00,93.3,57.2,29.68,North,355,2.0,12.0,30,0.00,,,0.00,570.0,WUHU216DAVISVP2,2013-09-13 22:25:00,
2013-09-13 15:30:00,93.0,56.9,29.68,NNW,347,4.0,9.0,30,0.00,,,0.00,555.0,WUHU216DAVISVP2,2013-09-13 22:30:00,
2013-09-13 15:35:00,93.1,56.0,29.68,NW,311,3.0,9.0,29,0.00,,,0.00,548.0,WUHU216DAVISVP2,2013-09-13 22:35:00,
2013-09-13 15:40:00,93.0,56.9,29.68,West,274,6.0,9.0,30,0.00,,,0.00,534.0,WUHU216DAVISVP2,2013-09-13 22:40:00,
2013-09-13 15:45:00,93.0,58.7,29.68,WNW,293,2.0,9.0,32,0.00,,,0.00,517.0,WUHU216DAVISVP2,2013-09-13 22:45:00,
2013-09-13 15:50:00,93.0,57.8,29.68,NW,325,3.0,8.0,31,0.00,,,0.00,512.0,WUHU216DAVISVP2,2013-09-13 22:50:00,
2013-09-13 15:55:00,93.1,57.9,29.67,WSW,248,4.0,8.0,31,0.00,,,0.00,499.0,WUHU216DAVISVP2,2013-09-13 22:55:00,
2013-09-13 16:00:00,92.9,57.7,29.67,WNW,290,2.0,8.0,31,0.00,,,0.00,478.0,WUHU216DAVISVP2,2013-09-13 23:00:00,
2013-09-13 16:05:00,93.3,58.2,29.67,NNW,331,2.0,8.0,31,0.00,,,0.00,462.0,WUHU216DAVISVP2,2013-09-13 23:05:00,
2013-09-13 16:10:00,93.0,57.9,29.67,NW,314,3.0,7.0,31,0.00,,,0.00,452.0,WUHU216DAVISVP2,2013-09-13 23:10:00,
2013-09-13 16:15:00,93.0,58.7,29.67,West,265,5.0,8.0,32,0.00,,,0.00,445.0,WUHU216DAVISVP2,2013-09-13 23:15:00,
2013-09-13 16:20:00,92.8,58.5,29.67,WNW,302,4.0,8.0,32,0.00,,,0.00,429.0,WUHU216DAVISVP2,2013-09-13 23:20:00,
2013-09-13 16:25:00,92.6,56.5,29.66,WNW,288,4.0,8.0,30,0.00,,,0.00,422.0,WUHU216DAVISVP2,2013-09-13 23:25:00,
2013-09-13 16:30:00,92.7,57.6,29.67,NNW,328,5.0,10.0,31,0.00,,,0.00,408.0,WUHU216DAVISVP2,2013-09-13 23:30:00,
2013-09-13 16:35:00,92.8,58.6,29.66,NW,309,5.0,10.0,32,0.00,,,0.00,390.0,WUHU216DAVISVP2,2013-09-13 23:35:00,
2013-09-13 16:40:00,92.7,58.4,29.66,West,281,1.0,10.0,32,0.00,,,0.00,374.0,WUHU216DAVISVP2,2013-09-13 23:40:00,
2013-09-13 16:45:00,92.5,58.3,29.66,West,273,2.0,10.0,32,0.00,,,0.00,357.0,WUHU216DAVISVP2,2013-09-13 23:45:00,
2013-09-13 16:50:00,92.6,59.2,29.65,NW,305,4.0,9.0,33,0.00,,,0.00,343.0,WUHU216DAVISVP2,2013-09-13 23:50:00,
2013-09-13 16:55:00,92.7,59.3,29.65,NW,304,5.0,9.0,33,0.00,,,0.00,320.0,WUHU216DAVISVP2,2013-09-13 23:55:00,
2013-09-13 17:00:00,92.5,59.1,29.65,West,281,5.0,9.0,33,0.00,,,0.00,308.0,WUHU216DAVISVP2,2013-09-14 00:00:00,
2013-09-13 17:05:00,92.4,59.0,29.65,WNW,303,3.0,9.0,33,0.00,,,0.00,299.0,WUHU216DAVISVP2,2013-09-14 00:05:00,
2013-09-13 17:10:00,92.7,59.4,29.65,NW,307,3.0,8.0,33,0.00,,,0.00,283.0,WUHU216DAVISVP2,2013-09-14 00:10:00,
2013-09-13 17:15:00,92.5,59.1,29.65,WNW,303,4.0,8.0,33,0.00,,,0.00,269.0,WUHU216DAVISVP2,2013-09-14 00:15:00,
2013-09-13 17:20:00,92.4,59.9,29.65,NW,325,4.0,8.0,34,0.00,,,0.00,253.0,WUHU216DAVISVP2,2013-09-14 00:20:00,
2013-09-13 17:25:00,92.6,60.1,29.65,NW,325,5.0,8.0,34,0.00,,,0.00,237.0,WUHU216DAVISVP2,2013-09-14 00:25:00,
2013-09-13 17:30:00,92.5,60.0,29.65,WNW,302,1.0,8.0,34,0.00,,,0.00,220.0,WUHU216DAVISVP2,2013-09-14 00:30:00,
2013-09-13 17:35:00,92.4,60.7,29.65,WNW,301,1.0,7.0,35,0.00,,,0.00,207.0,WUHU216DAVISVP2,2013-09-14 00:35:00,
2013-09-13 17:40:00,92.4,59.0,29.65,NW,304,5.0,8.0,33,0.00,,,0.00,195.0,WUHU216DAVISVP2,2013-09-14 00:40:00,
2013-09-13 17:45:00,92.2,60.5,29.65,NW,306,3.0,8.0,35,0.00,,,0.00,178.0,WUHU216DAVISVP2,2013-09-14 00:45:00,
2013-09-13 17:50:00,92.2,59.7,29.65,NW,314,4.0,8.0,34,0.00,,,0.00,160.0,WUHU216DAVISVP2,2013-09-14 00:50:00,
2013-09-13 17:55:00,92.1,59.6,29.65,WNW,291,3.0,8.0,34,0.00,,,0.00,139.0,WUHU216DAVISVP2,2013-09-14 00:55:00,
2013-09-13 18:00:00,91.8,60.2,29.65,WNW,302,3.0,6.0,35,0.00,,,0.00,125.0,WUHU216DAVISVP2,2013-09-14 01:00:00,
2013-09-13 18:05:00,91.8,59.4,29.64,WNW,301,1.0,6.0,34,0.00,,,0.00,109.0,WUHU216DAVISVP2,2013-09-14 01:05:00,
2013-09-13 18:10:00,91.9,59.4,29.65,West,280,3.0,6.0,34,0.00,,,0.00,95.0,WUHU216DAVISVP2,2013-09-14 01:10:00,
2013-09-13 18:15:00,91.5,59.1,29.65,NW,304,3.0,6.0,34,0.00,,,0.00,83.0,WUHU216DAVISVP2,2013-09-14 01:15:00,
2013-09-13 18:20:00,91.3,59.7,29.65,NW,306,4.0,6.0,35,0.00,,,0.00,72.0,WUHU216DAVISVP2,2013-09-14 01:20:00,
2013-09-13 18:25:00,91.3,59.8,29.64,NW,308,3.0,6.0,35,0.00,,,0.00,62.0,WUHU216DAVISVP2,2013-09-14 01:25:00,
2013-09-13 18:30:00,91.3,59.8,29.64,NW,309,2.0,6.0,35,0.00,,,0.00,49.0,WUHU216DAVISVP2,2013-09-14 01:30:00,
2013-09-13 18:35:00,91.2,60.4,29.65,NW,309,1.0,6.0,36,0.00,,,0.00,40.0,WUHU216DAVISVP2,2013-09-14 01:35:00,
2013-09-13 18:40:00,90.9,60.2,29.65,NW,309,0.0,4.0,36,0.00,,,0.00,32.0,WUHU216DAVISVP2,2013-09-14 01:40:00,
2013-09-13 18:45:00,90.7,60.8,29.65,NW,309,1.0,4.0,37,0.00,,,0.00,25.0,WUHU216DAVISVP2,2013-09-14 01:45:00,
2013-09-13 18:50:00,90.4,60.6,29.65,NW,309,1.0,4.0,37,0.00,,,0.00,19.0,WUHU216DAVISVP2,2013-09-14 01:50:00,
2013-09-13 18:55:00,89.9,60.9,29.65,NW,309,2.0,4.0,38,0.00,,,0.00,14.0,WUHU216DAVISVP2,2013-09-14 01:55:00,
2013-09-13 19:00:00,89.4,60.4,29.65,NW,309,2.0,4.0,38,0.00,,,0.00,11.0,WUHU216DAVISVP2,2013-09-14 02:00:00,
2013-09-13 19:05:00,89.1,60.9,29.65,NW,309,0.0,4.0,39,0.00,,,0.00,5.0,WUHU216DAVISVP2,2013-09-14 02:05:00,
2013-09-13 19:10:00,88.8,60.6,29.64,NW,309,1.0,4.0,39,0.00,,,0.00,0.0,WUHU216DAVISVP2,2013-09-14 02:10:00,
2013-09-13 19:15:00,88.4,61.0,29.65,NW,309,2.0,4.0,40,0.00,,,0.00,0.0,WUHU216DAVISVP2,2013-09-14 02:15:00,
2013-09-13 19:20:00,88.0,60.6,29.65,NW,309,1.0,4.0,40,0.00,,,0.00,0.0,WUHU216DAVISVP2,2013-09-14 02:20:00,
2013-09-13 19:25:00,87.7,60.4,29.65,NW,309,0.0,3.0,40,0.00,,,0.00,0.0,WUHU216DAVISVP2,2013-09-14 02:25:00,
2013-09-13 19:30:00,87.5,60.2,29.65,NW,309,2.0,3.0,40,0.00,,,0.00,0.0,WUHU216DAVISVP2,2013-09-14 02:30:00,
2013-09-13 19:35:00,87.1,60.5,29.65,NW,309,0.0,3.0,41,0.00,,,0.00,0.0,WUHU216DAVISVP2,2013-09-14 02:35:00,
2013-09-13 19:40:00,86.8,60.3,29.65,NW,309,0.0,3.0,41,0.00,,,0.00,0.0,WUHU216DAVISVP2,2013-09-14 02:40:00,
2013-09-13 19:45:00,86.6,60.8,29.65,NW,309,1.0,3.0,42,0.00,,,0.00,0.0,WUHU216DAVISVP2,2013-09-14 02:45:00,
2013-09-13 19:50:00,86.4,60.6,29.65,NW,309,1.0,3.0,42,0.00,,,0.00,0.0,WUHU216DAVISVP2,2013-09-14 02:50:00,
2013-09-13 19:55:00,86.2,60.4,29.65,NW,309,2.0,4.0,42,0.00,,,0.00,0.0,WUHU216DAVISVP2,2013-09-14 02:55:00,
2013-09-13 20:00:00,86.0,60.2,29.65,NW,309,2.0,4.0,42,0.00,,,0.00,0.0,WUHU216DAVISVP2,2013-09-14 03:00:00,
2013-09-13 20:05:00,85.9,60.8,29.65,NW,309,1.0,4.0,43,0.00,,,0.00,0.0,WUHU216DAVISVP2,2013-09-14 03:05:00,
2013-09-13 20:10:00,85.8,60.7,29.66,NW,309,3.0,4.0,43,0.00,,,0.00,0.0,WUHU216DAVISVP2,2013-09-14 03:10:00,
2013-09-13 20:15:00,85.5,61.1,29.66,NW,309,0.0,4.0,44,0.00,,,0.00,0.0,WUHU216DAVISVP2,2013-09-14 03:15:00,
2013-09-13 20:20:00,85.2,60.8,29.66,NW,309,2.0,4.0,44,0.00,,,0.00,0.0,WUHU216DAVISVP2,2013-09-14 03:20:00,
2013-09-13 20:25:00,84.8,61.1,29.66,NW,309,0.0,4.0,45,0.00,,,0.00,0.0,WUHU216DAVISVP2,2013-09-14 03:25:00,
2013-09-13 20:30:00,84.5,60.9,29.66,NW,309,0.0,4.0,45,0.00,,,0.00,0.0,WUHU216DAVISVP2,2013-09-14 03:30:00,
2013-09-13 20:35:00,84.1,61.1,29.67,NW,309,0.0,4.0,46,0.00,,,0.00,0.0,WUHU216DAVISVP2,2013-09-14 03:35:00,
2013-09-13 20:40:00,83.8,60.8,29.67,NW,309,1.0,3.0,46,0.00,,,0.00,0.0,WUHU216DAVISVP2,2013-09-14 03:40:00,
2013-09-13 20:45:00,83.6,60.7,29.67,NW,309,1.0,3.0,46,0.00,,,0.00,0.0,WUHU216DAVISVP2,2013-09-14 03:45:00,
2013-09-13 20:50:00,83.4,60.5,29.67,NW,309,1.0,3.0,46,0.00,,,0.00,0.0,WUHU216DAVISVP2,2013-09-14 03:50:00,
2013-09-13 20:55:00,83.3,60.4,29.67,NW,309,0.0,4.0,46,0.00,,,0.00,0.0,WUHU216DAVISVP2,2013-09-14 03:55:00,
2013-09-13 21:00:00,83.0,60.7,29.67,NW,309,0.0,4.0,47,0.00,,,0.00,0.0,WUHU216DAVISVP2,2013-09-14 04:00:00,
2013-09-13 21:01:00,83.0,60.7,29.67,NW,309,0.0,4.0,47,0.00,,,0.00,0.0,WUHU216DAVISVP2,2013-09-14 04:01:00,
2013-09-13 21:02:00,83.0,60.8,29.67,NW,309,0.0,4.0,47,0.00,,,0.00,0.0,WUHU216DAVISVP2,2013-09-14 04:02:00,
2013-09-13 21:07:00,82.7,60.5,29.67,NW,309,0.0,4.0,47,0.00,,,0.00,0.0,WUHU216DAVISVP2,2013-09-14 04:07:00,
2013-09-13 21:12:00,82.5,60.2,29.67,NW,309,1.0,3.0,47,0.00,,,0.00,0.0,WUHU216DAVISVP2,2013-09-14 04:12:00,
2013-09-13 21:17:00,82.5,60.3,29.67,NW,309,1.0,3.0,47,0.00,,,0.00,0.0,WUHU216DAVISVP2,2013-09-14 04:17:00,
2013-09-13 21:22:00,82.4,60.7,29.67,NW,309,2.0,3.0,48,0.00,,,0.00,0.0,WUHU216DAVISVP2,2013-09-14 04:22:00,
2013-09-13 21:27:00,82.3,60.6,29.68,NW,309,1.0,4.0,48,0.00,,,0.00,0.0,WUHU216DAVISVP2,2013-09-14 04:27:00,
2013-09-13 21:32:00,82.0,61.1,29.67,NW,309,2.0,4.0,49,0.00,,,0.00,0.0,WUHU216DAVISVP2,2013-09-14 04:32:00,
2013-09-13 21:37:00,81.6,60.7,29.68,NW,309,1.0,5.0,49,0.00,,,0.00,0.0,WUHU216DAVISVP2,2013-09-14 04:37:00,
2013-09-13 21:42:00,81.2,60.9,29.67,NW,309,0.0,5.0,50,0.00,,,0.00,0.0,WUHU216DAVISVP2,2013-09-14 04:42:00,
2013-09-13 21:47:00,81.0,61.3,29.67,NW,309,2.0,5.0,51,0.00,,,0.00,0.0,WUHU216DAVISVP2,2013-09-14 04:47:00,
2013-09-13 21:52:00,80.6,60.9,29.67,NW,309,1.0,5.0,51,0.00,,,0.00,0.0,WUHU216DAVISVP2,2013-09-14 04:52:00,
2013-09-13 21:57:00,80.3,61.2,29.68,NW,309,1.0,4.0,52,0.00,,,0.00,0.0,WUHU216DAVISVP2,2013-09-14 04:57:00,
2013-09-13 22:02:00,80.1,61.0,29.68,NW,309,0.0,3.0,52,0.00,,,0.00,0.0,WUHU216DAVISVP2,2013-09-14 05:02:00,
2013-09-13 22:07:00,79.8,61.3,29.68,NW,309,0.0,3.0,53,0.00,,,0.00,0.0,WUHU216DAVISVP2,2013-09-14 05:07:00,
2013-09-13 22:12:00,79.8,61.3,29.68,NW,309,2.0,3.0,53,0.00,,,0.00,0.0,WUHU216DAVISVP2,2013-09-14 05:12:00,
2013-09-13 22:17:00,79.6,61.1,29.68,NW,309,0.0,3.0,53,0.00,,,0.00,0.0,WUHU216DAVISVP2,2013-09-14 05:17:00,
2013-09-13 22:22:00,79.6,61.1,29.68,NW,309,0.0,2.0,53,0.00,,,0.00,0.0,WUHU216DAVISVP2,2013-09-14 05:22:00,
2013-09-13 22:27:00,79.4,60.8,29.68,NW,309,0.0,2.0,53,0.00,,,0.00,0.0,WUHU216DAVISVP2,2013-09-14 05:27:00,
2013-09-13 22:32:00,79.4,61.3,29.68,NW,309,0.0,2.0,54,0.00,,,0.00,0.0,WUHU216DAVISVP2,2013-09-14 05:32:00,
2013-09-13 22:37:00,79.3,61.2,29.68,NW,309,0.0,2.0,54,0.00,,,0.00,0.0,WUHU216DAVISVP2,2013-09-14 05:37:00,
2013-09-13 22:42:00,79.1,61.2,29.68,NW,309,0.0,2.0,54,0.00,,,0.00,0.0,WUHU216DAVISVP2,2013-09-14 05:42:00,
2013-09-13 22:47:00,78.9,60.8,29.68,NW,309,0.0,1.0,54,0.00,,,0.00,0.0,WUHU216DAVISVP2,2013-09-14 05:47:00,
2013-09-13 22:52:00,78.6,61.6,29.68,NW,309,0.0,1.0,56,0.00,,,0.00,0.0,WUHU216DAVISVP2,2013-09-14 05:52:00,
2013-09-13 22:57:00,78.2,61.2,29.68,NW,309,0.0,1.0,56,0.00,,,0.00,0.0,WUHU216DAVISVP2,2013-09-14 05:57:00,
2013-09-13 23:02:00,78.0,61.0,29.69,NW,309,0.0,1.0,56,0.00,,,0.00,0.0,WUHU216DAVISVP2,2013-09-14 06:02:00,
2013-09-13 23:07:00,78.0,61.0,29.68,NW,309,0.0,0.0,56,0.00,,,0.00,0.0,WUHU216DAVISVP2,2013-09-14 06:07:00,
2013-09-13 23:12:00,78.1,61.1,29.68,NW,309,0.0,0.0,56,0.00,,,0.00,0.0,WUHU216DAVISVP2,2013-09-14 06:12:00,
2013-09-13 23:17:00,78.2,60.7,29.68,NW,309,0.0,0.0,55,0.00,,,0.00,0.0,WUHU216DAVISVP2,2013-09-14 06:17:00,
2013-09-13 23:22:00,78.2,60.7,29.68,NW,309,0.0,0.0,55,0.00,,,0.00,0.0,WUHU216DAVISVP2,2013-09-14 06:22:00,
2013-09-13 23:27:00,78.2,61.2,29.68,NW,309,0.0,0.0,56,0.00,,,0.00,0.0,WUHU216DAVISVP2,2013-09-14 06:27:00,
2013-09-13 23:32:00,78.1,60.8,29.68,NW,309,0.0,0.0,55,0.00,,,0.00,0.0,WUHU216DAVISVP2,2013-09-14 06:32:00,
2013-09-13 23:37:00,78.1,60.8,29.68,NW,309,0.0,0.0,55,0.00,,,0.00,0.0,WUHU216DAVISVP2,2013-09-14 06:37:00,
2013-09-13 23:42:00,78.0,60.7,29.68,NW,309,0.0,0.0,55,0.00,,,0.00,0.0,WUHU216DAVISVP2,2013-09-14 06:42:00,
2013-09-13 23:47:00,78.0,61.0,29.68,NW,309,0.0,0.0,56,0.00,,,0.00,0.0,WUHU216DAVISVP2,2013-09-14 06:47:00,
2013-09-13 23:52:00,78.0,60.5,29.68,NW,309,0.0,0.0,55,0.00,,,0.00,0.0,WUHU216DAVISVP2,2013-09-14 06:52:00,
2013-09-13 23:57:00,77.8,61.5,29.68,NW,309,0.0,0.0,57,0.00,,,0.00,0.0,WUHU216DAVISVP2,2013-09-14 06:57:00,